Hourly Data Report for October 02, 2017

All times are specified in Local Standard Time (LST). Add 1 hour to adjust for Daylight Saving Time where and when it is observed.

PAULATUK
NORTHWEST TERRITORIES

69°21'28.004" N
124°04'57.005" W
6.30 m
2203058
71984
ZPK

Download Data

Hourly Data (October 2017)
Hourly Data Report for October 2, 2017
Temp Definition
°C
Dew Point Temp Definition
°C
Rel Hum Definition
%
Wind Dir Definition
10's deg

Wind Spd Definition
km/h
Visibility Definition
km
Stn Press Definition
kPa
Hmdx Definition


Wind Chill Definition


Weather Definition


TIME
00:00 -0.2 -1.6 90 30 38   101.99   -7 LegendNANA
01:00 0.3 -2.1 84 30 36   102.05     LegendNANA
02:00 0.2 -2.2 84 30 34   102.10     LegendNANA
03:00 0.2 -3.0 79 29 35   102.11     LegendNANA
04:00 -0.3 -1.9 89 29 29   102.16   -7 LegendNANA
05:00 -0.3 -1.8 89 29 30   102.17   -7 LegendNANA
06:00 -0.3 -2.0 89 30 27   102.22   -7 LegendNANA
07:00 -0.3 -2.9 83 29 29   102.24   -7 LegendNANA
08:00 -0.6 -3.0 84 32 24   102.28   -7 LegendNANA
09:00 -0.3 -4.1 76 30 28   102.31   -7 LegendNANA
10:00 -0.6 -3.5 80 32 22   102.39   -6 LegendNANA
11:00 -0.4 -4.7 73 31 20   102.40   -6 LegendNANA
12:00 -0.5 -4.1 76 29 16   102.39   -5 LegendNANA
13:00 -0.4 -3.5 80 31 16   102.38   -5 LegendNANA
14:00 -0.9 -3.2 85 35 18   102.38   -6 LegendNANA
15:00 -1.2 -4.7 77 34 17   102.38   -6 LegendNANA
16:00 -1.4 -5.5 74 10 3   102.34   -2 LegendNANA
17:00 -1.5 -5.3 76 21 4   102.30   -3 LegendNANA
18:00 -2.2 -5.1 81 17 2   102.25   -3 LegendNANA
19:00 -2.3 -4.9 82 17 2   102.23   -3 LegendNANA
20:00 -3.0 -4.8 87 18 6   102.26   -5 LegendNANA
21:00 -3.3 -5.0 88 16 5   102.16   -5 LegendNANA
22:00 -2.7 -4.6 87 13 6   102.14   -5 LegendNANA
23:00 -2.9 -5.0 85 14 10   102.04   -7 LegendNANA

Notes on Data Quality.

Legend

  • E = Estimated
  • M = Missing
  • NA = Not Available
  • ‡ = Partner data that is not subject to review by the National Climate Archives
Date modified: